This is the latest recevied weather packets stored in our database for station/object DL3GCR-10. If no packets are shown the sender has not sent any weather packets the latest 10 day(s).
| Time | Temp. | Humidity | Pressure | Rain* | Wind** | Luminosity | Snow |
|---|---|---|---|---|---|---|---|
| 1777351920 | 8.33° C | 63% | 1018.2 hPa | - | - | - | - |
| 1777351019 | 8.33° C | 63% | 1018 hPa | - | - | - | - |
| 1777350129 | 8.33° C | 62% | 1018 hPa | - | - | - | - |
| 1777349229 | 8.33° C | 61% | 1017.9 hPa | - | - | - | - |
| 1777348329 | 8.89° C | 60% | 1018 hPa | - | - | - | - |
| 1777347429 | 8.89° C | 59% | 1018 hPa | - | - | - | - |
| 1777346528 | 9.44° C | 58% | 1018.1 hPa | - | - | - | - |
| 1777345628 | 9.44° C | 58% | 1018.1 hPa | - | - | - | - |
| 1777344728 | 10° C | 56% | 1018.1 hPa | - | - | - | - |
| 1777343828 | 10° C | 58% | 1018.1 hPa | - | - | - | - |
| 1777342928 | 10.56° C | 57% | 1018.1 hPa | - | - | - | - |
| 1777342028 | 10.56° C | 56% | 1018.1 hPa | - | - | - | - |
| 1777341126 | 11.11° C | 54% | 1018.1 hPa | - | - | - | - |
| 1777340226 | 11.11° C | 53% | 1018.2 hPa | - | - | - | - |
| 1777338426 | 11.11° C | 52% | 1018.2 hPa | - | - | - | - |
| 1777337526 | 11.67° C | 51% | 1018.3 hPa | - | - | - | - |
| 1777336625 | 11.67° C | 51% | 1018.5 hPa | - | - | - | - |
| 1777335725 | 11.67° C | 52% | 1018.6 hPa | - | - | - | - |
| 1777334825 | 12.22° C | 50% | 1018.7 hPa | - | - | - | - |
| 1777333925 | 12.22° C | 49% | 1018.6 hPa | - | - | - | - |
| 1777333025 | 12.22° C | 50% | 1018.6 hPa | - | - | - | - |
| 1777332125 | 12.78° C | 47% | 1018.6 hPa | - | - | - | - |
| 1777331224 | 13.33° C | 42% | 1018.6 hPa | - | - | - | - |
| 1777330324 | 12.78° C | 46% | 1018.7 hPa | - | - | - | - |
| 1777328523 | 12.78° C | 47% | 1018.9 hPa | - | - | - | - |
* Rain since midnight (hover to see other rain measurements)
** Current wind speed in m/s (hover to see current wind gust speed)